Zurück zum Katalog

STARLINK-3653

AktivKommunikationVLEO
NORAD 52000·PAYLOAD·🇺🇸 United States

Gestartet Mar 9, 2022 von Cape Canaveral Space Force Station

Loading…

Nächste Überflüge (nächste 24 Stunden)

TLE

AktuellSource: CelesTrak SupGP

Epoche: Sep 15, 2026, 02:06 UTC

1 52000C 22025AW  26258.08798611 -.00021772  00000+0 -62291-3 0  2582
2 52000  53.1571 238.8537 0001259  88.1395 140.8342 15.35409019    18

Verfolge STARLINK-3653 in Echtzeit mit AllMySat

Download on the App Store